Location: Arroyo de Valdeoliva
(40.1604°N, 4.9878°W)
Time: 12:02:56
(UTC+00:00)

Tiangong - Pass Details

Date: 22 February 2026
Orbit: 381 x 391 km, 41.5° (Epoch: 8 March)

Event Time Altitude Azimuth Distance (km) Brightness Sun altitude
Rises 19:42:54 0° 270° (W) 2,253 3.4 -19.7°
Reaches altitude 10° 19:46:25 10° 229° (SW) 1,392 1.3 -20.3°
Maximum altitude 19:47:07 11° 216° (SW) 1,358 1.0 -20.5°
Drops below altitude 10° 19:47:49 10° 203° (SSW) 1,389 0.9 -20.6°
Enters shadow 19:48:40 - 189° (S) 1,506 0.9 -20.8°
